STARLINK-11675 [DTC] (64235 NORAD) Tracking and Keplerian Element Data

This shows tracking and keplerian element data for the satellite.

Feedback or suggestion? Click here.




ElementValue
Catalog64235
NameSTARLINK-11675 [DTC]
Epoch Orbit3265
Epoch Day353.63607731
Epoch Year2025
RAAN331.7161
Inclination43.0002
Eccentricity0.0002161
Argument of Perigee267.323
Mean Anonmoly92.739
Mean Motion15.70869704
Decay Rate0.00182899
L11 64235U 25119C 25353.63607731 .00182899 00000+0 13959-2 0 9994
L22 64235 43.0002 331.7161 0002161 267.3230 92.7390 15.70869704 32659



Live tracking and technical data element details for STARLINK-11675 [DTC] (NORAD 64235). STARLINK-11675 [DTC] can be tracked NOW for your location showing map with azimuth and elevation plus other details from your city location.







IsCatalogInMostPopularTable: catalog: 64235, numindb: 11
Update: records affected: 1



GetName: 64235 STARLINK-11675 [DTC]

Hit Count: updated at: Sat, 11 Apr 2026 21:44:40 GMT